Tracking 31027 objects as of 19-Jul-2025
HD Live streaming from Space Station
objects crossing your sky now

SL-3 R/B

Track SL-3 R/B now!
10-day predictions


NORAD ID: 6660
Int'l Code: 1973-034B
Perigee: 845.0 km
Apogee: 914.0 km
Inclination: 81.2 °
Period: 102.4 minutes
Semi major axis: 7250 km
RCS: 7.6236 m2 (large)
Launch date: May 29, 1973
Source: Commonwealth of Independent States (former USSR) (CIS)
Launch site: PLESETSK MISSILE AND SPACE COMPLEX (PKMTR)

Note: This is a ROCKET BODY
Your satellite tracking list
MAROC TUBSAT
Track 1 satellite(s)




NASA's NSSDC Master Catalog

Two Line Element Set (TLE):
1 06660U 73034B   25199.78072454  .00000100  00000-0  52731-4 0  9991
2 06660  81.2302  25.9064 0047603  71.3318 289.3010 14.06220501673140
Source of the keplerian elements: AFSPC